EW6304 Weather Reports


time (UTC)temp
C
wind
direction
speed
KPH
gust
KPH
rain 1hr
cm
rain 24hr
cm
rain mn
cm
humidity
%
barometer
mb
20260507051119 14 117 0.0 3.2 0.00 0.18 0.00 96 1005.5
20260507051115 14 117 0.0 3.2 0.00 0.18 0.00 96 1005.4
20260507050114 14 117 1.6 3.2 0.00 0.18 0.00 96 1005.5
20260507045615 14 118 1.6 4.8 0.00 0.18 0.00 96 1005.4
20260507045115 14 355 0.0 4.8 0.00 0.18 0.00 96 1005.6
20260507044616 14 355 0.0 3.2 0.00 0.18 0.00 96 1005.5
20260507044115 13 355 0.0 3.2 0.00 0.18 0.00 96 1005.5
20260507043615 13 355 0.0 3.2 0.00 0.18 0.00 96 1005.5
20260507043120 13 355 0.0 3.2 0.00 0.18 0.00 96 1005.2
20260507043116 13 355 0.0 3.2 0.00 0.18 0.00 96 1005.4
20260507042614 13 355 0.0 3.2 0.00 0.18 0.00 96 1005.3
20260507041614 13 355 0.0 3.2 0.00 0.18 0.00 96 1005.4
20260507041120 13 0 1.6 3.2 0.00 0.18 0.00 96 1005.3
20260507041115 13 355 1.6 3.2 0.00 0.18 0.00 96 1005.5
20260507040732 13 0 1.6 4.8 0.00 0.18 0.00 96 1005.4
20260507035616 13 0 1.6 4.8 0.00 0.18 0.18 96 1005.4
20260507035115 13 38 1.6 6.4 0.00 0.18 0.18 96 1005.5
20260507034615 13 355 1.6 6.4 0.00 0.18 0.18 96 1005.6
20260507034117 13 294 1.6 8.0 0.00 0.18 0.18 96 1005.8
20260507034112 13 350 1.6 8.0 0.00 0.18 0.18 96 1005.7
20260507033730 13 323 1.6 8.0 0.00 0.18 0.18 96 1005.5
20260507033111 13 323 1.6 8.0 0.00 0.18 0.18 96 1005.7
20260507032109 13 28 1.6 6.4 0.00 0.18 0.18 96 1005.4
20260507031609 13 28 1.6 8.0 0.00 0.18 0.18 96 1005.5
20260507031109 13 53 1.6 8.0 0.00 0.18 0.18 96 1005.4
20260507030609 13 327 1.6 6.4 0.00 0.18 0.18 96 1005.3
20260507030109 13 85 1.6 3.2 0.00 0.18 0.18 96 1005.3
20260507025611 13 95 1.6 8.0 0.00 0.18 0.18 96 1005.3
20260507025110 13 95 3.2 9.7 0.00 0.18 0.18 96 1005.2
20260507024609 13 277 1.6 9.7 0.00 0.18 0.18 96 1005.4
20260507024109 13 75 1.6 4.8 0.00 0.18 0.18 96 1005.3
20260507023614 13 26 1.6 6.4 0.00 0.18 0.18 96 1005.0
20260507023608 13 22 1.6 4.8 0.00 0.18 0.18 96 1005.1
20260507022607 13 121 1.6 6.4 0.00 0.18 0.18 96 1005.0
20260507022106 13 63 1.6 6.4 0.00 0.18 0.18 96 1005.3
20260507021606 13 42 1.6 6.4 0.00 0.18 0.18 96 1005.3
20260507021105 13 355 1.6 6.4 0.00 0.18 0.18 96 1005.4
20260507020607 13 84 1.6 6.4 0.00 0.18 0.18 96 1005.4
20260507020112 13 113 1.6 8.0 0.00 0.18 0.18 96 1005.5
20260507020107 13 114 1.6 8.0 0.00 0.18 0.18 96 1005.6
20260507015105 13 99 1.6 6.4 0.00 0.18 0.18 96 1005.9
20260507014607 13 72 1.6 6.4 0.00 0.18 0.18 95 1005.9
20260507014107 13 73 1.6 6.4 0.00 0.18 0.18 95 1005.7
20260507013606 13 327 1.6 6.4 0.00 0.18 0.18 95 1005.9
20260507013106 13 0 1.6 4.8 0.00 0.18 0.18 95 1005.9
20260507012603 13 336 1.6 4.8 0.00 0.18 0.18 95 1005.9
20260507012111 13 333 1.6 4.8 0.00 0.18 0.18 95 1006.0
20260507012105 13 333 1.6 3.2 0.00 0.18 0.18 95 1006.0
20260507011111 13 308 1.6 8.0 0.00 0.18 0.18 95 1006.0
20260507011106 13 316 1.6 4.8 0.00 0.18 0.18 95 1006.1
20260507010604 13 315 1.6 8.0 0.00 0.18 0.18 95 1006.1
20260507005608 13 46 1.6 8.0 0.03 0.18 0.18 95 1006.0
20260507005604 13 76 1.6 8.0 0.03 0.18 0.18 95 1006.0
20260507004603 13 123 3.2 8.0 0.03 0.18 0.18 95 1006.1
20260507004109 13 67 3.2 12.9 0.03 0.18 0.18 95 1005.9
20260507004104 13 204 3.2 8.0 0.03 0.18 0.18 95 1005.9
20260507003103 13 42 3.2 14.5 0.03 0.18 0.18 95 1006.0
20260507002601 13 65 3.2 14.5 0.03 0.18 0.18 95 1006.0
20260507002101 13 59 3.2 12.9 0.03 0.18 0.18 95 1006.0
20260507001603 13 61 3.2 12.9 0.03 0.18 0.18 95 1005.9
20260507001100 13 63 3.2 9.7 0.03 0.18 0.18 95 1005.8
20260507000600 13 49 3.2 9.7 0.03 0.18 0.18 95 1005.8
20260507000100 13 355 1.6 11.3 0.03 0.18 0.18 95 1005.8
20260506235600 13 36 3.2 12.9 0.00 0.15 0.15 95 1005.7
20260506235100 13 41 3.2 12.9 0.00 0.15 0.15 95 1005.6
20260506234605 13 32 3.2 12.9 0.03 0.15 0.15 94 1005.9
20260506234600 13 101 3.2 12.9 0.00 0.15 0.15 95 1005.8
20260506234219 13 75 3.2 11.3 0.03 0.15 0.15 94 1005.8
20260506233101 13 9 3.2 12.9 0.03 0.15 0.15 94 1005.9
20260506232606 13 69 3.2 17.7 0.08 0.15 0.15 94 1006.0
20260506232600 13 49 3.2 17.7 0.05 0.15 0.15 94 1005.8
20260506232217 13 49 3.2 14.5 0.08 0.15 0.15 94 1006.1
20260506231558 13 90 3.2 14.5 0.08 0.15 0.15 94 1006.0
20260506230600 14 88 1.6 9.7 0.10 0.15 0.15 94 1006.0
20260506230105 14 107 3.2 12.9 0.10 0.15 0.15 94 1005.9
20260506230100 14 119 3.2 12.9 0.10 0.15 0.15 94 1005.9
20260506225104 14 52 1.6 6.4 0.10 0.15 0.15 94 1005.8
20260506225059 14 86 1.6 8.0 0.10 0.15 0.15 94 1005.8
20260506224059 14 48 3.2 11.3 0.08 0.13 0.15 93 1005.9
20260506223559 14 174 3.2 11.3 0.08 0.13 0.13 93 1005.8
20260506223109 14 150 3.2 16.1 0.05 0.10 0.10 93 1006.2
20260506223058 14 71 3.2 8.0 0.08 0.13 0.13 93 1005.9
20260506222056 14 57 3.2 16.1 0.03 0.08 0.08 93 1006.2
20260506221558 14 186 3.2 14.5 0.03 0.08 0.08 93 1006.4
20260506221058 14 49 3.2 12.9 0.03 0.08 0.08 93 1006.3
20260506220557 14 65 3.2 12.9 0.00 0.05 0.05 93 1006.3
20260506220057 15 91 3.2 9.7 0.00 0.05 0.05 93 1006.3
20260506215603 15 171 3.2 9.7 0.00 0.05 0.05 92 1006.4
20260506215556 15 199 3.2 9.7 0.00 0.05 0.05 93 1006.5
20260506214559 15 9 3.2 11.3 0.00 0.05 0.05 92 1006.4
20260506214104 15 38 3.2 14.5 0.00 0.05 0.05 92 1006.4
20260506214057 15 152 3.2 16.1 0.00 0.05 0.05 92 1006.6
20260506213558 15 116 3.2 16.1 0.00 0.05 0.05 92 1006.5
20260506213214 15 157 3.2 14.5 0.00 0.05 0.05 92 1006.5
20260506212713 15 348 4.8 22.5 0.00 0.05 0.05 92 1006.7
20260506212056 15 61 4.8 22.5 0.00 0.05 0.05 92 1006.5
20260506211057 15 63 3.2 17.7 0.00 0.05 0.05 92 1006.6
20260506210715 15 112 3.2 9.7 0.03 0.05 0.05 92 1006.6
20260506210602 15 50 3.2 9.7 0.00 0.05 0.05 92 1006.7
20260506210557 15 24 3.2 11.3 0.00 0.05 0.05 92 1006.6
20260506205715 15 105 3.2 16.1 0.05 0.05 0.05 91 1006.7
20260506205056 15 0 3.2 9.7 0.05 0.05 0.05 92 1006.7
20260506204057 15 194 3.2 16.1 0.05 0.05 0.05 91 1006.9
20260506203555 15 76 3.2 14.5 0.05 0.05 0.05 91 1006.8
20260506203055 15 82 3.2 8.0 0.05 0.05 0.05 91 1006.9
20260506202556 15 279 3.2 12.9 0.05 0.05 0.05 91 1006.9
20260506202051 15 189 3.2 12.9 0.05 0.05 0.05 90 1006.9
20260506201551 15 85 3.2 17.7 0.05 0.05 0.05 90 1007.0
20260506201050 15 203 3.2 17.7 0.05 0.05 0.05 89 1007.0
20260506200550 16 46 3.2 8.0 0.05 0.05 0.05 89 1007.0
20260506200051 16 82 3.2 14.5 0.03 0.03 0.05 88 1007.1
20260506195553 16 116 3.2 6.4 0.00 0.00 0.00 86 1007.2
20260506195549 16 116 3.2 14.5 0.03 0.03 0.03 87 1007.0
20260506195207 17 150 3.2 9.7 0.00 0.00 0.00 82 1007.2
20260506194548 16 49 3.2 6.4 0.00 0.00 0.00 85 1007.2
20260506194049 16 49 3.2 9.7 0.00 0.00 0.00 84 1007.2
20260506193047 17 62 3.2 14.5 0.00 0.00 0.00 81 1007.2
20260506192548 17 184 3.2 14.5 0.00 0.00 0.00 79 1007.2
20260506192049 17 168 4.8 16.1 0.00 0.00 0.00 79 1007.2
20260506191549 17 245 4.8 16.1 0.00 0.00 0.00 79 1007.2
20260506191049 17 71 4.8 12.9 0.00 0.00 0.00 78 1007.3
20260506190548 17 51 4.8 16.1 0.00 0.00 0.00 78 1007.3
20260506190049 17 285 4.8 16.1 0.00 0.00 0.00 78 1007.3
20260506185549 17 92 4.8 12.9 0.00 0.00 0.00 77 1007.1
20260506185049 17 107 4.8 19.3 0.00 0.00 0.00 77 1007.0
20260506184548 18 44 4.8 19.3 0.00 0.00 0.00 76 1007.4
20260506184046 18 41 4.8 20.9 0.00 0.00 0.00 76 1007.3
20260506183547 18 65 4.8 20.9 0.00 0.00 0.00 76 1007.5
20260506183046 18 142 4.8 20.9 0.00 0.00 0.00 75 1007.4
20260506182547 18 132 4.8 20.9 0.00 0.00 0.00 75 1007.3
20260506182048 18 197 4.8 17.7 0.00 0.00 0.00 74 1007.4
20260506181547 18 311 4.8 14.5 0.00 0.00 0.00 75 1007.5
20260506181044 18 59 4.8 14.5 0.00 0.00 0.00 74 1007.6
20260506180549 19 91 4.8 19.3 0.00 0.00 0.00 73 1007.9
20260506180544 19 71 4.8 11.3 0.00 0.00 0.00 74 1007.8
20260506175546 19 132 4.8 19.3 0.00 0.00 0.00 73 1007.9
20260506175049 20 84 4.8 20.9 0.00 0.00 0.00 73 1008.1
20260506175044 20 165 4.8 20.9 0.00 0.00 0.00 73 1008.1
20260506174043 20 154 4.8 17.7 0.00 0.00 0.00 72 1008.3
20260506173544 20 46 4.8 19.3 0.00 0.00 0.00 72 1008.3
20260506173044 20 96 4.8 19.3 0.00 0.00 0.00 71 1008.2
20260506172549 21 128 4.8 27.4 0.00 0.00 0.00 69 1008.1
20260506172543 20 179 4.8 27.4 0.00 0.00 0.00 70 1008.1
20260506171543 21 82 4.8 16.1 0.00 0.00 0.00 68 1008.1
20260506171041 21 33 3.2 17.7 0.00 0.00 0.00 72 1008.1
20260506170543 20 157 3.2 17.7 0.00 0.00 0.00 72 1008.2
20260506170047 20 65 4.8 20.9 0.00 0.00 0.00 71 1008.4
20260506170043 20 159 4.8 11.3 0.00 0.00 0.00 71 1008.3
20260506165656 20 100 4.8 20.9 0.00 0.00 0.00 71 1008.5
20260506164541 20 122 4.8 14.5 0.00 0.00 0.00 70 1008.5
20260506164040 20 212 4.8 14.5 0.00 0.00 0.00 70 1008.5
20260506163541 20 279 4.8 14.5 0.00 0.00 0.00 70 1008.5
20260506163040 20 86 3.2 14.5 0.00 0.00 0.00 71 1008.7
20260506162537 20 57 3.2 12.9 0.00 0.00 0.00 70 1008.6
20260506162037 20 231 4.8 11.3 0.00 0.00 0.00 70 1008.7
20260506161538 20 328 4.8 14.5 0.00 0.00 0.00 70 1008.8
20260506161038 20 171 4.8 14.5 0.00 0.00 0.00 69 1009.0
20260506160543 21 159 3.2 14.5 0.00 0.00 0.00 69 1009.0
20260506160538 21 63 3.2 14.5 0.00 0.00 0.00 68 1008.9
20260506155536 21 113 4.8 16.1 0.00 0.00 0.00 69 1009.1
20260506155035 21 329 4.8 16.1 0.00 0.00 0.00 68 1009.2
20260506154541 21 182 3.2 19.3 0.00 0.00 0.00 70 1009.4
20260506154536 21 344 4.8 19.3 0.00 0.00 0.00 69 1009.2
20260506154034 20 92 4.8 16.1 0.00 0.00 0.00 70 1009.4
20260506153652 20 285 6.4 25.7 0.00 0.00 0.00 71 1009.3
20260506152535 20 160 4.8 25.7 0.00 0.00 0.00 71 1009.3
20260506152035 20 67 3.2 16.1 0.00 0.00 0.00 70 1009.6
20260506151534 20 34 3.2 16.1 0.00 0.00 0.00 71 1009.5
20260506151034 20 344 3.2 14.5 0.00 0.00 0.00 70 1009.4
20260506150535 20 178 3.2 14.5 0.00 0.00 0.00 70 1009.4
20260506150035 20 192 3.2 6.4 0.00 0.00 0.00 71 1009.5
20260506145534 20 109 3.2 16.1 0.00 0.00 0.00 71 1009.4
20260506145040 20 149 3.2 16.1 0.00 0.00 0.00 71 1009.1
20260506145036 20 200 3.2 16.1 0.00 0.00 0.00 70 1009.4
20260506144533 20 144 3.2 12.9 0.00 0.00 0.00 70 1009.2
20260506144154 20 117 3.2 16.1 0.00 0.00 0.00 70 1009.3
20260506143040 20 171 4.8 16.1 0.00 0.00 0.00 71 1009.3
20260506143033 20 78 4.8 12.9 0.00 0.00 0.00 72 1009.4
20260506142651 20 166 3.2 16.1 0.00 0.00 0.00 71 1009.1
20260506141539 20 146 3.2 14.5 0.00 0.00 0.00 72 1009.2
20260506141534 20 328 3.2 14.5 0.00 0.00 0.00 72 1009.2
20260506140534 20 41 3.2 14.5 0.00 0.00 0.00 70 1009.2
20260506140035 20 43 4.8 12.9 0.00 0.00 0.00 71 1009.3
20260506135535 20 175 3.2 19.3 0.00 0.00 0.00 72 1009.4
20260506135033 20 190 3.2 19.3 0.00 0.00 0.00 75 1009.5
20260506134537 19 123 3.2 16.1 0.00 0.00 0.00 73 1009.8
20260506134532 19 312 3.2 12.9 0.00 0.00 0.00 73 1009.7
20260506133532 19 57 4.8 16.1 0.00 0.00 0.00 76 1009.9
20260506133032 18 25 4.8 16.1 0.00 0.00 0.00 76 1009.9
20260506132532 18 121 4.8 16.1 0.00 0.00 0.00 76 1010.0
20260506132038 18 190 3.2 12.9 0.00 0.00 0.00 78 1009.8
20260506132033 18 294 3.2 12.9 0.00 0.00 0.00 77 1009.9
20260506131034 17 316 3.2 16.1 0.00 0.00 0.00 80 1009.8
20260506131029 17 58 3.2 16.1 0.00 0.00 0.00 80 1009.9
20260506130647 17 34 3.2 12.9 0.00 0.00 0.00 81 1010.2
20260506130029 17 154 3.2 12.9 0.00 0.00 0.00 82 1010.0
20260506125029 17 108 3.2 8.0 0.00 0.00 0.00 81 1010.0
20260506124534 16 178 4.8 14.5 0.00 0.00 0.00 82 1009.9
20260506124529 17 332 3.2 14.5 0.00 0.00 0.00 82 1009.9
20260506123527 16 78 3.2 12.9 0.00 0.00 0.00 82 1009.8
20260506123030 16 200 3.2 12.9 0.00 0.00 0.00 83 1009.6
20260506122527 16 59 3.2 12.9 0.00 0.00 0.00 83 1009.7
20260506122034 16 191 3.2 11.3 0.00 0.00 0.00 85 1010.2
20260506122028 16 158 3.2 11.3 0.00 0.00 0.00 84 1010.0
20260506121026 16 39 3.2 16.1 0.00 0.00 0.00 84 1010.4
20260506120530 16 209 3.2 14.5 0.00 0.00 0.00 84 1010.3
20260506120525 16 355 3.2 16.1 0.00 0.00 0.00 84 1010.3
20260506115526 16 130 3.2 14.5 0.00 0.00 0.00 85 1010.3
20260506115025 16 105 3.2 14.5 0.00 0.00 0.00 85 1010.3
20260506114531 15 107 3.2 8.0 0.00 0.00 0.00 87 1010.4
20260506114526 16 237 3.2 6.4 0.00 0.00 0.00 86 1010.5
20260506113525 15 155 3.2 11.3 0.00 0.00 0.00 88 1010.5
20260506113026 15 35 3.2 11.3 0.00 0.00 0.00 88 1010.5
20260506112525 15 61 3.2 14.5 0.00 0.00 0.00 88 1010.4
20260506112024 15 154 3.2 14.5 0.00 0.00 0.00 89 1010.5
20260506111523 15 18 3.2 11.3 0.00 0.00 0.00 89 1010.4
20260506111023 15 168 3.2 12.9 0.00 0.00 0.00 89 1010.4
20260506110525 14 92 3.2 19.3 0.00 0.00 0.00 89 1010.3
20260506110024 14 325 3.2 19.3 0.00 0.00 0.00 90 1010.5
20260506105528 14 331 3.2 16.1 0.00 0.00 0.00 90 1010.5
20260506105523 14 331 3.2 11.3 0.00 0.00 0.00 90 1010.4
20260506104524 14 0 3.2 16.1 0.00 0.00 0.00 90 1010.5
20260506104023 14 61 3.2 8.0 0.00 0.00 0.00 91 1010.4
20260506103524 14 130 3.2 8.0 0.00 0.00 0.00 91 1010.4
20260506103022 14 36 3.2 12.9 0.00 0.00 0.00 91 1010.4
20260506102523 14 227 3.2 12.9 0.00 0.00 0.00 91 1010.4
20260506102027 14 12 1.6 8.0 0.00 0.00 0.00 91 1010.2
20260506102022 14 29 3.2 9.7 0.00 0.00 0.00 91 1010.3
20260506101024 13 45 3.2 11.3 0.00 0.00 0.00 91 1010.2
20260506101019 13 101 3.2 11.3 0.00 0.00 0.00 91 1010.3
20260506100020 13 133 3.2 11.3 0.00 0.00 0.00 91 1010.1
20260506095520 13 74 3.2 11.3 0.00 0.00 0.00 91 1010.1
20260506095018 13 9 3.2 8.0 0.00 0.00 0.00 91 1010.1
20260506094518 13 140 1.6 8.0 0.00 0.00 0.00 91 1010.1
20260506094016 13 58 1.6 8.0 0.00 0.00 0.00 91 1010.2
20260506093516 13 324 1.6 8.0 0.00 0.00 0.00 91 1010.2
20260506093016 13 138 1.6 8.0 0.00 0.00 0.00 91 1010.1
20260506092514 13 84 1.6 9.7 0.00 0.00 0.00 90 1010.2
20260506092014 13 162 1.6 9.7 0.00 0.00 0.00 90 1010.1
20260506091518 13 58 3.2 16.1 0.00 0.00 0.00 90 1010.1
20260506091513 13 64 3.2 16.1 0.00 0.00 0.00 90 1010.2
20260506090516 13 280 1.6 9.7 0.00 0.00 0.00 90 1010.2
20260506090512 13 46 3.2 9.7 0.00 0.00 0.00 90 1010.2
20260506090131 13 59 3.2 9.7 0.00 0.00 0.00 90 1010.1
20260506085012 13 56 1.6 9.7 0.00 0.00 0.00 90 1010.2
20260506084512 13 72 1.6 6.4 0.00 0.00 0.00 90 1010.2
20260506084016 13 0 1.6 8.0 0.00 0.00 0.00 89 1010.3
20260506084011 13 10 3.2 8.0 0.00 0.00 0.00 89 1010.4
20260506083009 13 48 1.6 8.0 0.00 0.00 0.00 89 1010.2
20260506082509 13 82 3.2 14.5 0.00 0.00 0.00 89 1010.2
20260506082009 14 114 3.2 14.5 0.00 0.00 0.00 89 1010.3
20260506081510 13 110 3.2 8.0 0.00 0.00 0.00 89 1010.2
20260506081010 13 28 3.2 12.9 0.00 0.00 0.00 89 1010.3
20260506080508 13 84 3.2 12.9 0.00 0.00 0.00 89 1010.3
20260506073508 14 39 3.2 8.0 0.00 0.00 0.00 88 1010.2
20260506073009 14 86 3.2 8.0 0.00 0.00 0.00 88 1010.3
20260506072510 13 274 3.2 8.0 0.00 0.00 0.00 88 1010.2
20260506072009 13 343 3.2 11.3 0.00 0.00 0.00 88 1010.2
20260506071514 14 78 1.6 8.0 0.00 0.00 0.00 87 1010.2
20260506071509 13 44 3.2 11.3 0.00 0.00 0.00 88 1010.1
20260506070509 14 111 1.6 14.5 0.00 0.00 0.00 87 1010.2
20260506062504 14 319 3.2 8.0 0.00 0.00 0.00 86 1010.1
20260506062006 14 86 3.2 9.7 0.00 0.00 0.00 86 1010.2
20260506061011 14 157 1.6 9.7 0.00 0.00 0.00 85 1010.2
20260506061006 14 38 1.6 9.7 0.00 0.00 0.00 86 1010.1